| time (UTC) | temp F | wind direction | speed MPH | gust MPH | rain 1hr in | rain 24hr in | rain mn in | humidity % | barometer mb |
| 20260906044229 | 77 | 159 | 0.0 | 0.0 | 0.00 | 0.00 | 0.00 | 95 | 1013.7 |
| 20260906043726 | 77 | 160 | 0.0 | 0.0 | 0.00 | 0.00 | 0.00 | 96 | 1013.8 |
| 20260906043222 | 77 | 160 | 0.0 | 0.0 | 0.00 | 0.00 | 0.00 | 96 | 1013.6 |
| 20260906042721 | 77 | 160 | 0.0 | 0.0 | 0.00 | 0.00 | 0.00 | 96 | 1013.8 |
| 20260906042220 | 77 | 160 | 0.0 | 0.0 | 0.00 | 0.00 | 0.00 | 95 | 1013.7 |
| 20260906041715 | 77 | 160 | 0.0 | 0.0 | 0.00 | 0.00 | 0.00 | 95 | 1013.7 |
| 20260906041211 | 77 | 159 | 0.0 | 0.0 | 0.00 | 0.00 | 0.00 | 95 | 1013.9 |
| 20260906040706 | 77 | 158 | 0.0 | 0.0 | 0.00 | 0.00 | 0.00 | 95 | 1013.7 |
| 20260906040202 | 78 | 158 | 0.0 | 0.0 | 0.00 | 0.00 | 0.00 | 95 | 1013.6 |
| 20260906035658 | 78 | 159 | 0.0 | 0.0 | 0.00 | 0.00 | 0.00 | 95 | 1013.6 |
| 20260906035153 | 78 | 158 | 0.0 | 0.0 | 0.00 | 0.00 | 0.00 | 94 | 1013.7 |
| 20260906034653 | 78 | 154 | 0.0 | 0.0 | 0.00 | 0.00 | 0.00 | 93 | 1013.7 |
| 20260906034148 | 78 | 152 | 0.0 | 0.0 | 0.00 | 0.00 | 0.00 | 94 | 1013.7 |
| 20260906033643 | 78 | 164 | 0.0 | 0.0 | 0.00 | 0.00 | 0.00 | 94 | 1013.7 |
| 20260906033137 | 78 | 164 | 0.0 | 0.0 | 0.00 | 0.00 | 0.00 | 94 | 1013.5 |
| 20260906032634 | 78 | 164 | 0.0 | 0.0 | 0.00 | 0.00 | 0.00 | 94 | 1013.5 |
| 20260906032134 | 78 | 164 | 0.0 | 0.0 | 0.00 | 0.00 | 0.00 | 94 | 1013.7 |
| 20260906031629 | 78 | 164 | 0.0 | 0.0 | 0.00 | 0.00 | 0.00 | 94 | 1013.5 |
| 20260906031125 | 78 | 164 | 0.0 | 0.0 | 0.00 | 0.00 | 0.00 | 94 | 1013.5 |
| 20260906030624 | 79 | 164 | 0.0 | 0.0 | 0.00 | 0.00 | 0.00 | 94 | 1013.4 |
| 20260906030119 | 79 | 165 | 0.0 | 0.0 | 0.00 | 0.00 | 0.00 | 93 | 1013.5 |
| 20260906025619 | 79 | 165 | 0.0 | 0.0 | 0.00 | 0.00 | 0.00 | 93 | 1013.2 |
| 20260906025118 | 79 | 165 | 0.0 | 0.0 | 0.00 | 0.00 | 0.00 | 92 | 1013.5 |
| 20260906024612 | 80 | 163 | 0.0 | 0.0 | 0.00 | 0.00 | 0.00 | 92 | 1013.3 |
| 20260906024107 | 80 | 162 | 0.0 | 0.0 | 0.00 | 0.00 | 0.00 | 91 | 1013.3 |
| 20260906023603 | 80 | 163 | 0.0 | 0.0 | 0.00 | 0.00 | 0.00 | 91 | 1013.4 |
| 20260906023057 | 80 | 163 | 0.0 | 0.0 | 0.00 | 0.00 | 0.00 | 90 | 1013.2 |
| 20260906022553 | 80 | 163 | 0.0 | 0.0 | 0.00 | 0.00 | 0.00 | 90 | 1013.3 |
| 20260906022048 | 80 | 163 | 0.0 | 0.0 | 0.00 | 0.00 | 0.00 | 90 | 1013.2 |
| 20260906021543 | 80 | 164 | 0.0 | 0.0 | 0.00 | 0.00 | 0.00 | 90 | 1013.4 |
| 20260906021043 | 80 | 165 | 0.0 | 0.0 | 0.00 | 0.00 | 0.00 | 89 | 1013.1 |
| 20260906020543 | 81 | 162 | 0.0 | 0.0 | 0.00 | 0.00 | 0.00 | 88 | 1013.1 |
| 20260906020042 | 81 | 163 | 0.0 | 0.0 | 0.00 | 0.00 | 0.00 | 88 | 1013.1 |
| 20260906015541 | 81 | 162 | 0.0 | 0.0 | 0.00 | 0.00 | 0.00 | 87 | 1013.0 |
| 20260906015035 | 82 | 162 | 0.0 | 0.0 | 0.00 | 0.00 | 0.00 | 87 | 1013.0 |
| 20260906014530 | 82 | 162 | 0.0 | 0.0 | 0.00 | 0.00 | 0.00 | 86 | 1013.0 |
| 20260906014026 | 82 | 163 | 0.0 | 0.0 | 0.00 | 0.00 | 0.00 | 86 | 1013.1 |
| 20260906013521 | 82 | 162 | 0.0 | 0.0 | 0.00 | 0.00 | 0.00 | 84 | 1012.9 |
| 20260906013017 | 83 | 162 | 0.0 | 0.0 | 0.00 | 0.00 | 0.00 | 84 | 1012.9 |
| 20260906012512 | 83 | 160 | 0.0 | 0.0 | 0.00 | 0.00 | 0.00 | 83 | 1012.9 |
| 20260906012012 | 83 | 161 | 0.0 | 0.0 | 0.00 | 0.00 | 0.00 | 82 | 1012.8 |
| 20260906011508 | 83 | 160 | 0.0 | 0.0 | 0.00 | 0.00 | 0.00 | 81 | 1012.7 |
| 20260906011008 | 83 | 161 | 0.0 | 0.0 | 0.00 | 0.00 | 0.00 | 83 | 1012.4 |
| 20260906010503 | 84 | 161 | 0.0 | 0.0 | 0.00 | 0.00 | 0.00 | 82 | 1012.5 |
| 20260906005959 | 84 | 160 | 0.0 | 0.0 | 0.00 | 0.00 | 0.00 | 83 | 1012.6 |
| 20260906005458 | 85 | 159 | 0.0 | 1.0 | 0.00 | 0.00 | 0.00 | 81 | 1012.3 |
| 20260906004957 | 85 | 158 | 0.0 | 0.0 | 0.00 | 0.00 | 0.00 | 79 | 1012.4 |
| 20260906004457 | 86 | 158 | 0.0 | 0.0 | 0.00 | 0.00 | 0.00 | 78 | 1012.4 |
| 20260906003952 | 86 | 158 | 0.0 | 0.0 | 0.00 | 0.00 | 0.00 | 76 | 1012.4 |
| 20260906003447 | 87 | 158 | 0.0 | 0.0 | 0.00 | 0.00 | 0.00 | 75 | 1012.3 |
| 20260906002942 | 87 | 158 | 0.0 | 0.0 | 0.00 | 0.00 | 0.00 | 73 | 1012.1 |
| 20260906002442 | 88 | 158 | 0.0 | 0.0 | 0.00 | 0.00 | 0.00 | 72 | 1012.3 |
| 20260906001937 | 89 | 157 | 0.0 | 0.0 | 0.00 | 0.00 | 0.00 | 71 | 1012.4 |
| 20260906001433 | 89 | 158 | 0.0 | 0.0 | 0.00 | 0.00 | 0.00 | 70 | 1012.3 |
| 20260906000928 | 91 | 158 | 0.0 | 0.0 | 0.00 | 0.00 | 0.00 | 68 | 1012.2 |
| 20260906000425 | 91 | 157 | 0.0 | 0.0 | 0.00 | 0.00 | 0.00 | 66 | 1012.2 |
| 20260905235919 | 92 | 157 | 0.0 | 0.0 | 0.00 | 0.00 | 0.00 | 66 | 1012.2 |
| 20260905235418 | 93 | 157 | 0.0 | 0.0 | 0.00 | 0.00 | 0.00 | 67 | 1012.2 |
| 20260905234913 | 93 | 159 | 0.0 | 0.0 | 0.00 | 0.00 | 0.00 | 65 | 1012.5 |
| 20260905234409 | 94 | 159 | 0.0 | 0.0 | 0.00 | 0.00 | 0.00 | 63 | 1012.4 |
| 20260905233903 | 94 | 150 | 0.0 | 0.0 | 0.00 | 0.00 | 0.00 | 62 | 1012.5 |
| 20260905233358 | 95 | 151 | 0.0 | 0.0 | 0.00 | 0.00 | 0.00 | 62 | 1012.4 |
| 20260905232858 | 96 | 155 | 0.0 | 0.0 | 0.00 | 0.00 | 0.00 | 61 | 1012.3 |
| 20260905232354 | 96 | 151 | 0.0 | 0.0 | 0.00 | 0.00 | 0.00 | 58 | 1012.1 |
| 20260905231849 | 97 | 155 | 0.0 | 0.0 | 0.00 | 0.00 | 0.00 | 57 | 1012.3 |
| 20260905231344 | 97 | 139 | 0.0 | 1.0 | 0.00 | 0.00 | 0.00 | 55 | 1012.3 |
| 20260905230841 | 97 | 155 | 0.0 | 1.0 | 0.00 | 0.00 | 0.00 | 52 | 1012.2 |
| 20260905230338 | 98 | 157 | 0.0 | 1.0 | 0.00 | 0.00 | 0.00 | 52 | 1012.1 |
| 20260905225838 | 98 | 157 | 0.0 | 0.0 | 0.00 | 0.00 | 0.00 | 51 | 1012.4 |
| 20260905225333 | 98 | 152 | 0.0 | 1.0 | 0.00 | 0.00 | 0.00 | 52 | 1012.3 |
| 20260905224828 | 99 | 150 | 1.0 | 3.0 | 0.00 | 0.00 | 0.00 | 48 | 1012.3 |
| 20260905224324 | 99 | 150 | 0.0 | 1.0 | 0.00 | 0.00 | 0.00 | 48 | 1012.4 |
| 20260905223824 | 100 | 160 | 1.0 | 3.0 | 0.00 | 0.00 | 0.00 | 47 | 1012.3 |
| 20260905223322 | 100 | 176 | 2.0 | 3.0 | 0.00 | 0.00 | 0.00 | 47 | 1012.4 |
| 20260905222816 | 101 | 104 | 2.0 | 2.0 | 0.00 | 0.00 | 0.00 | 47 | 1012.4 |
| 20260905222315 | 101 | 142 | 0.0 | 0.0 | 0.00 | 0.00 | 0.00 | 46 | 1012.5 |
| 20260905221811 | 102 | 131 | 1.0 | 3.0 | 0.00 | 0.00 | 0.00 | 45 | 1012.3 |
| 20260905221308 | 103 | 150 | 0.0 | 1.0 | 0.00 | 0.00 | 0.00 | 44 | 1012.5 |
| 20260905220803 | 103 | 148 | 1.0 | 1.0 | 0.00 | 0.00 | 0.00 | 44 | 1012.5 |
| 20260905220300 | 103 | 128 | 0.0 | 2.0 | 0.00 | 0.00 | 0.00 | 45 | 1012.4 |
| 20260905215758 | 101 | 165 | 1.0 | 2.0 | 0.00 | 0.00 | 0.00 | 46 | 1012.3 |
| 20260905215255 | 101 | 79 | 2.0 | 2.0 | 0.00 | 0.00 | 0.00 | 46 | 1012.5 |
| 20260905214750 | 103 | 37 | 1.0 | 2.0 | 0.00 | 0.00 | 0.00 | 45 | 1012.5 |
| 20260905214246 | 104 | 159 | 1.0 | 2.0 | 0.00 | 0.00 | 0.00 | 45 | 1012.6 |
| 20260905213741 | 103 | 148 | 2.0 | 2.0 | 0.00 | 0.00 | 0.00 | 45 | 1012.5 |
| 20260905213237 | 102 | 148 | 1.0 | 1.0 | 0.00 | 0.00 | 0.00 | 47 | 1012.6 |
| 20260905212732 | 99 | 161 | 1.0 | 1.0 | 0.00 | 0.00 | 0.00 | 49 | 1012.5 |
| 20260905212231 | 100 | 142 | 1.0 | 2.0 | 0.00 | 0.00 | 0.00 | 49 | 1012.7 |
| 20260905211731 | 101 | 147 | 1.0 | 3.0 | 0.00 | 0.00 | 0.00 | 47 | 1012.6 |
| 20260905211226 | 103 | 171 | 1.0 | 2.0 | 0.00 | 0.00 | 0.00 | 45 | 1012.4 |
| 20260905210723 | 103 | 150 | 1.0 | 6.0 | 0.00 | 0.00 | 0.00 | 45 | 1012.5 |
| 20260905210223 | 101 | 131 | 2.0 | 3.0 | 0.00 | 0.00 | 0.00 | 46 | 1012.4 |
| 20260905205721 | 101 | 140 | 1.0 | 6.0 | 0.00 | 0.00 | 0.00 | 45 | 1012.5 |
| 20260905205216 | 102 | 44 | 3.0 | 5.0 | 0.00 | 0.00 | 0.00 | 42 | 1012.6 |
| 20260905204716 | 104 | 161 | 2.0 | 3.0 | 0.00 | 0.00 | 0.00 | 41 | 1012.7 |
| 20260905204212 | 106 | 187 | 4.0 | 6.0 | 0.00 | 0.00 | 0.00 | 40 | 1012.7 |
| 20260905203706 | 104 | 138 | 1.0 | 5.0 | 0.00 | 0.00 | 0.00 | 41 | 1013.0 |
| 20260905203201 | 104 | 116 | 1.0 | 5.0 | 0.00 | 0.00 | 0.00 | 41 | 1013.0 |
| 20260905202657 | 104 | 167 | 2.0 | 3.0 | 0.00 | 0.00 | 0.00 | 41 | 1013.1 |
| 20260905202152 | 102 | 150 | 3.0 | 3.0 | 0.00 | 0.00 | 0.00 | 42 | 1013.2 |
| 20260905201647 | 102 | 64 | 7.0 | 9.0 | 0.00 | 0.00 | 0.00 | 42 | 1013.0 |
| 20260905201147 | 102 | 73 | 3.0 | 6.0 | 0.00 | 0.00 | 0.00 | 41 | 1013.2 |
| 20260905200642 | 105 | 59 | 2.0 | 5.0 | 0.00 | 0.00 | 0.00 | 41 | 1013.2 |
| 20260905200138 | 104 | 135 | 2.0 | 3.0 | 0.00 | 0.00 | 0.00 | 40 | 1013.3 |
| 20260905195636 | 104 | 195 | 3.0 | 5.0 | 0.00 | 0.00 | 0.00 | 40 | 1013.6 |
| 20260905195131 | 107 | 159 | 1.0 | 2.0 | 0.00 | 0.00 | 0.00 | 39 | 1013.7 |
| 20260905194626 | 105 | 87 | 0.0 | 2.0 | 0.00 | 0.00 | 0.00 | 40 | 1013.6 |
| 20260905194125 | 103 | 178 | 3.0 | 6.0 | 0.00 | 0.00 | 0.00 | 42 | 1013.8 |
| 20260905193621 | 105 | 63 | 4.0 | 6.0 | 0.00 | 0.00 | 0.00 | 39 | 1013.8 |
| 20260905193115 | 103 | 149 | 1.0 | 2.0 | 0.00 | 0.00 | 0.00 | 40 | 1013.8 |
| 20260905192611 | 105 | 158 | 1.0 | 3.0 | 0.00 | 0.00 | 0.00 | 39 | 1014.2 |
| 20260905192107 | 104 | 139 | 2.0 | 5.0 | 0.00 | 0.00 | 0.00 | 40 | 1014.2 |
| 20260905191606 | 103 | 140 | 3.0 | 5.0 | 0.00 | 0.00 | 0.00 | 41 | 1014.1 |
| 20260905191105 | 100 | 156 | 0.0 | 3.0 | 0.00 | 0.00 | 0.00 | 44 | 1014.1 |
| 20260905190603 | 103 | 26 | 6.0 | 9.0 | 0.00 | 0.00 | 0.00 | 43 | 1014.3 |
| 20260905185601 | 104 | 148 | 1.0 | 3.0 | 0.00 | 0.00 | 0.00 | 42 | 1014.4 |
| 20260905185056 | 105 | 344 | 4.0 | 7.0 | 0.00 | 0.00 | 0.00 | 41 | 1014.4 |
| 20260905184551 | 104 | 148 | 1.0 | 3.0 | 0.00 | 0.00 | 0.00 | 42 | 1014.5 |
| 20260905184050 | 103 | 120 | 3.0 | 3.0 | 0.00 | 0.00 | 0.00 | 42 | 1014.7 |
| 20260905183549 | 102 | 83 | 2.0 | 3.0 | 0.00 | 0.00 | 0.00 | 43 | 1014.4 |
| 20260905183045 | 104 | 184 | 1.0 | 3.0 | 0.00 | 0.00 | 0.00 | 42 | 1015.0 |
| 20260905182538 | 104 | 148 | 3.0 | 5.0 | 0.00 | 0.00 | 0.00 | 42 | 1014.6 |
| 20260905182033 | 104 | 164 | 1.0 | 2.0 | 0.00 | 0.00 | 0.00 | 43 | 1014.5 |
| 20260905181528 | 103 | 138 | 1.0 | 6.0 | 0.00 | 0.00 | 0.00 | 47 | 1014.6 |
| 20260905181027 | 100 | 151 | 1.0 | 5.0 | 0.00 | 0.00 | 0.00 | 49 | 1014.7 |
| 20260905180527 | 100 | 161 | 1.0 | 6.0 | 0.00 | 0.00 | 0.00 | 48 | 1014.8 |
| 20260905180023 | 100 | 154 | 1.0 | 6.0 | 0.00 | 0.00 | 0.00 | 47 | 1014.9 |
| 20260905175521 | 103 | 132 | 1.0 | 1.0 | 0.00 | 0.00 | 0.00 | 44 | 1015.0 |
| 20260905175018 | 100 | 179 | 2.0 | 5.0 | 0.00 | 0.00 | 0.00 | 46 | 1014.9 |
| 20260905174513 | 98 | 106 | 3.0 | 7.0 | 0.00 | 0.00 | 0.00 | 49 | 1015.0 |
| 20260905174008 | 98 | 46 | 5.0 | 6.0 | 0.00 | 0.00 | 0.00 | 50 | 1014.9 |
| 20260905173504 | 98 | 111 | 1.0 | 8.0 | 0.00 | 0.00 | 0.00 | 50 | 1015.0 |
| 20260905172959 | 98 | 164 | 0.0 | 8.0 | 0.00 | 0.00 | 0.00 | 50 | 1015.0 |
| 20260905172458 | 99 | 39 | 5.0 | 11.0 | 0.00 | 0.00 | 0.00 | 49 | 1015.0 |
| 20260905171953 | 100 | 168 | 2.0 | 6.0 | 0.00 | 0.00 | 0.00 | 48 | 1015.1 |
| 20260905171450 | 100 | 181 | 4.0 | 5.0 | 0.00 | 0.00 | 0.00 | 48 | 1015.2 |
| 20260905170946 | 98 | 160 | 2.0 | 6.0 | 0.00 | 0.00 | 0.00 | 52 | 1015.3 |
| 20260905170443 | 100 | 172 | 1.0 | 2.0 | 0.00 | 0.00 | 0.00 | 50 | 1015.3 |
| 20260905165942 | 102 | 138 | 3.0 | 3.0 | 0.00 | 0.00 | 0.00 | 50 | 1015.5 |
| 20260905165437 | 101 | 139 | 4.0 | 6.0 | 0.00 | 0.00 | 0.00 | 51 | 1015.5 |
| 20260905164932 | 100 | 179 | 2.0 | 2.0 | 0.00 | 0.00 | 0.00 | 50 | 1015.7 |
| 20260905164432 | 99 | 153 | 0.0 | 2.0 | 0.00 | 0.00 | 0.00 | 51 | 1015.8 |
| 20260905163926 | 101 | 89 | 2.0 | 2.0 | 0.00 | 0.00 | 0.00 | 53 | 1015.7 |
| 20260905163424 | 101 | 140 | 1.0 | 2.0 | 0.00 | 0.00 | 0.00 | 52 | 1015.7 |
| 20260905162919 | 98 | 156 | 1.0 | 2.0 | 0.00 | 0.00 | 0.00 | 54 | 1015.9 |
| 20260905162415 | 95 | 110 | 0.0 | 3.0 | 0.00 | 0.00 | 0.00 | 58 | 1016.0 |
| 20260905161909 | 97 | 98 | 3.0 | 5.0 | 0.00 | 0.00 | 0.00 | 55 | 1016.0 |
| 20260905161409 | 98 | 64 | 1.0 | 2.0 | 0.00 | 0.00 | 0.00 | 54 | 1016.1 |
| 20260905160906 | 98 | 158 | 2.0 | 3.0 | 0.00 | 0.00 | 0.00 | 52 | 1016.1 |
| 20260905160400 | 97 | 151 | 0.0 | 1.0 | 0.00 | 0.00 | 0.00 | 54 | 1016.1 |
| 20260905155855 | 97 | 53 | 3.0 | 3.0 | 0.00 | 0.00 | 0.00 | 56 | 1016.2 |
| 20260905155354 | 96 | 149 | 0.0 | 3.0 | 0.00 | 0.00 | 0.00 | 58 | 1016.2 |
| 20260905154853 | 96 | 111 | 1.0 | 2.0 | 0.00 | 0.00 | 0.00 | 57 | 1016.2 |
| 20260905154349 | 95 | 100 | 0.0 | 1.0 | 0.00 | 0.00 | 0.00 | 58 | 1016.2 |
| 20260905153844 | 95 | 100 | 0.0 | 1.0 | 0.00 | 0.00 | 0.00 | 60 | 1016.2 |
| 20260905153341 | 95 | 94 | 0.0 | 1.0 | 0.00 | 0.00 | 0.00 | 60 | 1016.3 |
| 20260905152840 | 93 | 72 | 1.0 | 3.0 | 0.00 | 0.00 | 0.00 | 63 | 1016.3 |
| 20260905152339 | 94 | 96 | 2.0 | 3.0 | 0.00 | 0.00 | 0.00 | 63 | 1016.3 |
| 20260905151835 | 94 | 137 | 1.0 | 2.0 | 0.00 | 0.00 | 0.00 | 62 | 1016.5 |
| 20260905151331 | 93 | 41 | 2.0 | 3.0 | 0.00 | 0.00 | 0.00 | 65 | 1016.4 |
| 20260905150830 | 96 | 50 | 1.0 | 2.0 | 0.00 | 0.00 | 0.00 | 60 | 1016.3 |
| 20260905150325 | 94 | 146 | 0.0 | 0.0 | 0.00 | 0.00 | 0.00 | 62 | 1016.3 |
| 20260905145823 | 93 | 165 | 2.0 | 3.0 | 0.00 | 0.00 | 0.00 | 65 | 1016.2 |
| 20260905145322 | 92 | 154 | 0.0 | 1.0 | 0.00 | 0.00 | 0.00 | 71 | 1016.4 |
| 20260905144821 | 90 | 144 | 0.0 | 1.0 | 0.00 | 0.00 | 0.00 | 74 | 1016.3 |
| 20260905144317 | 89 | 140 | 1.0 | 2.0 | 0.00 | 0.00 | 0.00 | 77 | 1016.4 |
| 20260905143815 | 88 | 121 | 2.0 | 2.0 | 0.00 | 0.00 | 0.00 | 78 | 1016.3 |
| 20260905143310 | 88 | 76 | 2.0 | 2.0 | 0.00 | 0.00 | 0.00 | 79 | 1016.3 |
| 20260905142810 | 88 | 94 | 1.0 | 3.0 | 0.00 | 0.00 | 0.00 | 79 | 1016.3 |
| 20260905142309 | 87 | 148 | 0.0 | 0.0 | 0.00 | 0.00 | 0.00 | 80 | 1016.3 |
| 20260905141806 | 86 | 134 | 1.0 | 2.0 | 0.00 | 0.00 | 0.00 | 82 | 1016.2 |
| 20260905141301 | 86 | 129 | 1.0 | 2.0 | 0.00 | 0.00 | 0.00 | 83 | 1016.4 |
| 20260905140756 | 85 | 132 | 1.0 | 2.0 | 0.00 | 0.00 | 0.00 | 85 | 1016.1 |
| 20260905140256 | 85 | 136 | 0.0 | 1.0 | 0.00 | 0.00 | 0.00 | 85 | 1016.2 |
| 20260905135755 | 84 | 132 | 1.0 | 1.0 | 0.00 | 0.00 | 0.00 | 85 | 1016.0 |
| 20260905135251 | 85 | 138 | 0.0 | 0.0 | 0.00 | 0.00 | 0.00 | 86 | 1016.1 |
| 20260905134751 | 84 | 148 | 0.0 | 0.0 | 0.00 | 0.00 | 0.00 | 88 | 1016.2 |
| 20260905134244 | 84 | 151 | 0.0 | 0.0 | 0.00 | 0.00 | 0.00 | 90 | 1016.3 |
| 20260905133739 | 82 | 150 | 0.0 | 0.0 | 0.00 | 0.00 | 0.00 | 93 | 1016.3 |
| 20260905133234 | 81 | 179 | 0.0 | 0.0 | 0.00 | 0.00 | 0.00 | 92 | 1016.1 |
| 20260905132733 | 80 | 158 | 0.0 | 0.0 | 0.00 | 0.00 | 0.00 | 95 | 1016.3 |
| 20260905132229 | 79 | 156 | 0.0 | 0.0 | 0.00 | 0.00 | 0.00 | 99 | 1016.4 |
| 20260905131725 | 78 | 159 | 0.0 | 0.0 | 0.00 | 0.00 | 0.00 | 99 | 1016.4 |
| 20260905131220 | 77 | 159 | 0.0 | 0.0 | 0.00 | 0.00 | 0.00 | 99 | 1016.4 |
| 20260905130720 | 77 | 151 | 0.0 | 0.0 | 0.00 | 0.00 | 0.00 | 99 | 1016.5 |
| 20260905130219 | 77 | 156 | 0.0 | 0.0 | 0.00 | 0.00 | 0.00 | 99 | 1016.3 |
| 20260905125714 | 76 | 158 | 0.0 | 0.0 | 0.00 | 0.00 | 0.00 | 99 | 1016.2 |
| 20260905125209 | 75 | 161 | 0.0 | 0.0 | 0.00 | 0.00 | 0.00 | 99 | 1016.1 |
| 20260905124706 | 75 | 159 | 2.0 | 3.0 | 0.00 | 0.00 | 0.00 | 99 | 1016.2 |
| 20260905124202 | 74 | 159 | 1.0 | 3.0 | 0.00 | 0.00 | 0.00 | 99 | 1016.3 |
| 20260905123702 | 74 | 171 | 1.0 | 2.0 | 0.00 | 0.00 | 0.00 | 99 | 1016.3 |
| 20260905123159 | 73 | 160 | 0.0 | 0.0 | 0.00 | 0.00 | 0.00 | 99 | 1016.3 |
| 20260905122658 | 73 | 159 | 0.0 | 0.0 | 0.00 | 0.00 | 0.00 | 99 | 1016.2 |
| 20260905122153 | 72 | 159 | 0.0 | 0.0 | 0.00 | 0.00 | 0.00 | 99 | 1016.1 |
| 20260905121648 | 72 | 159 | 0.0 | 0.0 | 0.00 | 0.00 | 0.00 | 99 | 1016.1 |
| 20260905121144 | 72 | 159 | 0.0 | 0.0 | 0.00 | 0.00 | 0.00 | 99 | 1016.0 |
| 20260905120643 | 72 | 162 | 0.0 | 0.0 | 0.00 | 0.00 | 0.00 | 99 | 1016.1 |
| 20260905120138 | 72 | 157 | 0.0 | 0.0 | 0.00 | 0.00 | 0.00 | 99 | 1016.0 |
| 20260905115637 | 72 | 161 | 0.0 | 0.0 | 0.00 | 0.00 | 0.00 | 99 | 1016.0 |
| 20260905115132 | 72 | 161 | 0.0 | 0.0 | 0.00 | 0.00 | 0.00 | 99 | 1016.0 |
| 20260905114632 | 72 | 161 | 0.0 | 0.0 | 0.00 | 0.00 | 0.00 | 99 | 1015.9 |
| 20260905114130 | 72 | 161 | 0.0 | 0.0 | 0.00 | 0.00 | 0.00 | 99 | 1016.1 |
| 20260905113625 | 72 | 161 | 0.0 | 0.0 | 0.00 | 0.00 | 0.00 | 99 | 1015.9 |
| 20260905113122 | 72 | 161 | 0.0 | 0.0 | 0.00 | 0.00 | 0.00 | 99 | 1015.8 |
| 20260905112621 | 72 | 162 | 0.0 | 0.0 | 0.00 | 0.00 | 0.00 | 99 | 1015.7 |
| 20260905112117 | 72 | 162 | 0.0 | 0.0 | 0.00 | 0.00 | 0.00 | 99 | 1015.6 |
| 20260905111612 | 72 | 161 | 0.0 | 0.0 | 0.00 | 0.00 | 0.00 | 99 | 1015.6 |
| 20260905111111 | 72 | 165 | 0.0 | 0.0 | 0.00 | 0.00 | 0.00 | 99 | 1015.7 |
| 20260905110610 | 72 | 163 | 0.0 | 0.0 | 0.00 | 0.00 | 0.00 | 99 | 1015.6 |
| 20260905110106 | 72 | 161 | 0.0 | 0.0 | 0.00 | 0.00 | 0.00 | 99 | 1015.9 |
| 20260905105600 | 72 | 160 | 0.0 | 0.0 | 0.00 | 0.00 | 0.00 | 99 | 1015.6 |
| 20260905105059 | 72 | 151 | 0.0 | 0.0 | 0.00 | 0.00 | 0.00 | 99 | 1015.5 |
| 20260905104555 | 72 | 131 | 0.0 | 0.0 | 0.00 | 0.00 | 0.00 | 99 | 1015.5 |
| 20260905104055 | 72 | 161 | 0.0 | 0.0 | 0.00 | 0.00 | 0.00 | 99 | 1015.3 |
| 20260905103550 | 72 | 169 | 1.0 | 1.0 | 0.00 | 0.00 | 0.00 | 99 | 1015.5 |
| 20260905103046 | 72 | 161 | 0.0 | 0.0 | 0.00 | 0.00 | 0.00 | 99 | 1015.5 |
| 20260905102542 | 72 | 161 | 0.0 | 0.0 | 0.00 | 0.00 | 0.00 | 99 | 1015.5 |
| 20260905102038 | 72 | 163 | 0.0 | 1.0 | 0.00 | 0.00 | 0.00 | 99 | 1015.7 |
| 20260905101536 | 72 | 164 | 0.0 | 0.0 | 0.00 | 0.00 | 0.00 | 99 | 1015.4 |
| 20260905101035 | 72 | 160 | 0.0 | 0.0 | 0.00 | 0.00 | 0.00 | 99 | 1015.3 |
| 20260905100532 | 72 | 158 | 0.0 | 0.0 | 0.00 | 0.00 | 0.00 | 99 | 1015.4 |
| 20260905100031 | 72 | 158 | 0.0 | 0.0 | 0.00 | 0.00 | 0.00 | 99 | 1015.3 |
| 20260905095526 | 72 | 158 | 0.0 | 0.0 | 0.00 | 0.00 | 0.00 | 99 | 1015.4 |
| 20260905095021 | 73 | 155 | 0.0 | 0.0 | 0.00 | 0.00 | 0.00 | 99 | 1015.2 |
| 20260905094516 | 72 | 155 | 0.0 | 0.0 | 0.00 | 0.00 | 0.00 | 99 | 1015.4 |
| 20260905094015 | 72 | 149 | 0.0 | 0.0 | 0.00 | 0.00 | 0.00 | 99 | 1015.3 |
| 20260905093510 | 73 | 159 | 0.0 | 0.0 | 0.00 | 0.00 | 0.00 | 99 | 1015.3 |
| 20260905093006 | 73 | 161 | 0.0 | 0.0 | 0.00 | 0.00 | 0.00 | 99 | 1015.4 |
| 20260905092501 | 73 | 153 | 0.0 | 0.0 | 0.00 | 0.00 | 0.00 | 99 | 1015.3 |
| 20260905091957 | 73 | 143 | 0.0 | 0.0 | 0.00 | 0.00 | 0.00 | 99 | 1015.1 |
| 20260905091456 | 73 | 161 | 0.0 | 0.0 | 0.00 | 0.00 | 0.00 | 99 | 1015.4 |
| 20260905090956 | 73 | 161 | 0.0 | 0.0 | 0.00 | 0.00 | 0.00 | 99 | 1015.3 |
| 20260905090451 | 73 | 161 | 0.0 | 0.0 | 0.00 | 0.00 | 0.00 | 99 | 1015.1 |
| 20260905085950 | 73 | 161 | 0.0 | 0.0 | 0.00 | 0.00 | 0.00 | 99 | 1015.1 |
| 20260905085449 | 73 | 163 | 0.0 | 0.0 | 0.00 | 0.00 | 0.00 | 99 | 1015.0 |
| 20260905084945 | 73 | 161 | 0.0 | 0.0 | 0.00 | 0.00 | 0.00 | 99 | 1015.1 |
| 20260905084445 | 73 | 160 | 0.0 | 0.0 | 0.00 | 0.00 | 0.00 | 99 | 1015.2 |
| 20260905083939 | 73 | 160 | 0.0 | 0.0 | 0.00 | 0.00 | 0.00 | 99 | 1015.2 |
| 20260905083435 | 73 | 160 | 0.0 | 0.0 | 0.00 | 0.00 | 0.00 | 99 | 1015.2 |
| 20260905082931 | 73 | 142 | 0.0 | 0.0 | 0.00 | 0.00 | 0.00 | 99 | 1015.1 |
| 20260905082426 | 73 | 163 | 0.0 | 0.0 | 0.00 | 0.00 | 0.00 | 99 | 1015.3 |
| 20260905081921 | 73 | 163 | 0.0 | 0.0 | 0.00 | 0.00 | 0.00 | 99 | 1015.3 |
| 20260905081416 | 73 | 161 | 0.0 | 0.0 | 0.00 | 0.00 | 0.00 | 99 | 1015.2 |
| 20260905080915 | 73 | 158 | 0.0 | 0.0 | 0.00 | 0.00 | 0.00 | 99 | 1015.1 |
| 20260905080415 | 73 | 158 | 0.0 | 0.0 | 0.00 | 0.00 | 0.00 | 99 | 1015.1 |
| 20260905075914 | 73 | 157 | 0.0 | 0.0 | 0.00 | 0.00 | 0.00 | 99 | 1015.1 |
| 20260905075409 | 73 | 156 | 0.0 | 0.0 | 0.00 | 0.00 | 0.00 | 99 | 1015.3 |
| 20260905074908 | 73 | 156 | 0.0 | 0.0 | 0.00 | 0.00 | 0.00 | 99 | 1015.1 |
| 20260905074404 | 74 | 162 | 0.0 | 0.0 | 0.00 | 0.00 | 0.00 | 99 | 1015.1 |
| 20260905073859 | 74 | 159 | 0.0 | 0.0 | 0.00 | 0.00 | 0.00 | 99 | 1015.2 |
| 20260905073354 | 74 | 161 | 0.0 | 0.0 | 0.00 | 0.00 | 0.00 | 99 | 1015.2 |
| 20260905072850 | 73 | 161 | 0.0 | 0.0 | 0.00 | 0.00 | 0.00 | 99 | 1015.1 |
| 20260905072344 | 74 | 162 | 0.0 | 0.0 | 0.00 | 0.00 | 0.00 | 99 | 1015.1 |
| 20260905071841 | 74 | 162 | 0.0 | 0.0 | 0.00 | 0.00 | 0.00 | 99 | 1015.3 |
| 20260905071338 | 74 | 175 | 0.0 | 0.0 | 0.00 | 0.00 | 0.00 | 99 | 1015.1 |
| 20260905070837 | 74 | 164 | 0.0 | 0.0 | 0.00 | 0.00 | 0.00 | 99 | 1015.1 |
| 20260905070334 | 74 | 163 | 0.0 | 0.0 | 0.00 | 0.00 | 0.00 | 99 | 1015.3 |
| 20260905065832 | 74 | 163 | 0.0 | 0.0 | 0.00 | 0.00 | 0.00 | 99 | 1015.4 |
| 20260905065331 | 74 | 163 | 0.0 | 0.0 | 0.00 | 0.00 | 0.00 | 99 | 1015.1 |
| 20260905064826 | 74 | 163 | 0.0 | 0.0 | 0.00 | 0.00 | 0.00 | 99 | 1015.2 |
| 20260905064322 | 74 | 163 | 0.0 | 0.0 | 0.00 | 0.00 | 0.00 | 99 | 1015.0 |
| 20260905063820 | 74 | 163 | 0.0 | 0.0 | 0.00 | 0.00 | 0.00 | 99 | 1015.2 |
| 20260905063317 | 75 | 164 | 0.0 | 0.0 | 0.00 | 0.00 | 0.00 | 99 | 1015.2 |
| 20260905062813 | 75 | 163 | 0.0 | 0.0 | 0.00 | 0.00 | 0.00 | 99 | 1015.5 |
| 20260905062313 | 75 | 162 | 0.0 | 0.0 | 0.00 | 0.00 | 0.00 | 99 | 1015.3 |
| 20260905061808 | 75 | 162 | 0.0 | 0.0 | 0.00 | 0.00 | 0.00 | 99 | 1015.3 |
| 20260905061302 | 75 | 162 | 0.0 | 0.0 | 0.00 | 0.00 | 0.00 | 99 | 1015.4 |
| 20260905060756 | 75 | 161 | 0.0 | 0.0 | 0.00 | 0.00 | 0.00 | 99 | 1015.5 |
| 20260905060253 | 75 | 161 | 0.0 | 0.0 | 0.00 | 0.00 | 0.00 | 99 | 1015.5 |
| 20260905055752 | 75 | 162 | 0.0 | 0.0 | 0.00 | 0.00 | 0.00 | 99 | 1015.5 |
| 20260905055247 | 75 | 163 | 0.0 | 0.0 | 0.00 | 0.00 | 0.00 | 99 | 1015.5 |
| 20260905054741 | 75 | 163 | 0.0 | 0.0 | 0.00 | 0.00 | 0.00 | 99 | 1015.5 |
| 20260905054238 | 75 | 163 | 0.0 | 0.0 | 0.00 | 0.00 | 0.00 | 98 | 1015.4 |
| 20260905053737 | 76 | 163 | 0.0 | 0.0 | 0.00 | 0.00 | 0.00 | 98 | 1015.4 |
| 20260905053233 | 76 | 169 | 0.0 | 0.0 | 0.00 | 0.00 | 0.00 | 98 | 1015.5 |
| 20260905052732 | 76 | 162 | 0.0 | 0.0 | 0.00 | 0.00 | 0.00 | 97 | 1015.4 |
| 20260905052227 | 76 | 160 | 0.0 | 0.0 | 0.00 | 0.00 | 0.00 | 97 | 1015.3 |
| 20260905051727 | 76 | 162 | 0.0 | 0.0 | 0.00 | 0.00 | 0.00 | 97 | 1015.3 |
| 20260905051224 | 76 | 162 | 0.0 | 0.0 | 0.00 | 0.00 | 0.00 | 97 | 1015.4 |
| 20260905050720 | 76 | 161 | 0.0 | 0.0 | 0.00 | 0.00 | 0.00 | 97 | 1015.5 |
| 20260905050216 | 77 | 170 | 0.0 | 0.0 | 0.00 | 0.00 | 0.00 | 96 | 1015.5 |
| 20260905045716 | 77 | 161 | 0.0 | 0.0 | 0.00 | 0.00 | 0.00 | 96 | 1015.4 |
| 20260905045212 | 77 | 161 | 0.0 | 0.0 | 0.00 | 0.00 | 0.00 | 95 | 1015.4 |
| 20260905044712 | 77 | 159 | 0.0 | 0.0 | 0.00 | 0.00 | 0.00 | 95 | 1015.4 |